TimeMST,TemperatureF,Dew PointF,Humidity,Sea Level PressureIn,VisibilityMPH,Wind Direction,Wind SpeedMPH,Gust SpeedMPH,PrecipitationIn,Events,Conditions,WindDirDegrees,DateUTC
12:05 AM,24.8,-9999,N/A,29.80,1.0,WSW,4.6,-,0.00,Snow,Light Snow,240,2012-12-31 07:05:00
12:21 AM,24.8,-9999,N/A,29.80,2.0,WSW,3.5,-,0.01,Snow,Light Snow,250,2012-12-31 07:21:00
12:42 AM,23.0,-9999,N/A,29.80,3.0,West,6.9,-,0.01,Snow,Light Snow,260,2012-12-31 07:42:00
12:57 AM,23.0,-9999,N/A,29.81,5.0,West,4.6,-,0.01,Snow,Light Snow,260,2012-12-31 07:57:00
1:25 AM,23.0,-9999,N/A,29.81,1.5,WSW,3.5,-,0.00,Snow,Light Snow,240,2012-12-31 08:25:00
1:28 AM,23.0,-9999,N/A,29.81,0.8,WSW,4.6,-,0.01,Snow,Light Snow,240,2012-12-31 08:28:00
1:43 AM,23.0,-9999,N/A,29.81,2.0,SW,6.9,-,0.02,Snow,Light Snow,230,2012-12-31 08:43:00
1:46 AM,23.0,-9999,N/A,29.81,4.0,WSW,6.9,-,0.02,Snow,Light Snow,240,2012-12-31 08:46:00
1:57 AM,23.0,-9999,N/A,29.82,7.0,WSW,5.8,-,0.02,,Overcast,240,2012-12-31 08:57:00
2:34 AM,21.2,-9999,N/A,29.82,1.8,West,8.1,-,0.01,Snow,Light Snow,260,2012-12-31 09:34:00
2:39 AM,21.2,-9999,N/A,29.82,0.8,WSW,8.1,-,0.01,Snow,Light Snow,250,2012-12-31 09:39:00
2:53 AM,21.2,-9999,N/A,29.82,3.0,SW,6.9,-,0.01,Snow,Light Snow,230,2012-12-31 09:53:00
2:57 AM,19.9,-9999,N/A,29.85,8.0,WSW,6.9,-,0.01,Snow,Light Snow,240,2012-12-31 09:57:00
3:07 AM,17.6,-9999,N/A,29.83,10.0,SW,4.6,-,0.00,,Scattered Clouds,220,2012-12-31 10:07:00
3:57 AM,15.1,-9999,N/A,29.88,10.0,Calm,Calm,-,0.00,,Partly Cloudy,0,2012-12-31 10:57:00
4:12 AM,15.8,-9999,N/A,29.83,4.0,Calm,Calm,-,0.00,Snow,Light Snow,0,2012-12-31 11:12:00
4:19 AM,14.0,-9999,N/A,29.83,7.0,Calm,Calm,-,0.00,Snow,Light Snow,0,2012-12-31 11:19:00
4:26 AM,15.8,-9999,N/A,29.84,9.0,Variable,3.5,-,0.00,,Overcast,0,2012-12-31 11:26:00
4:37 AM,17.6,-9999,N/A,29.84,8.0,SW,4.6,-,0.00,,Overcast,220,2012-12-31 11:37:00
4:44 AM,17.6,-9999,N/A,29.84,10.0,SW,5.8,-,0.00,,Overcast,220,2012-12-31 11:44:00
4:57 AM,19.9,-9999,N/A,29.88,10.0,West,4.6,-,0.00,,Overcast,270,2012-12-31 11:57:00
5:57 AM,19.9,-9999,N/A,29.90,10.0,WSW,4.6,-,0.00,,Overcast,240,2012-12-31 12:57:00
6:57 AM,19.0,-9999,N/A,29.94,9.0,Calm,Calm,-,N/A,,Overcast,0,2012-12-31 13:57:00
7:43 AM,17.6,-9999,N/A,29.90,2.0,WSW,4.6,-,0.00,Snow,Light Snow,240,2012-12-31 14:43:00
7:50 AM,17.6,-9999,N/A,29.90,10.0,WSW,4.6,-,0.00,Snow,Light Snow,250,2012-12-31 14:50:00
7:57 AM,16.0,-9999,N/A,29.97,10.0,West,4.6,-,0.00,,Mostly Cloudy,270,2012-12-31 14:57:00
8:09 AM,19.4,-9999,N/A,29.91,10.0,WSW,5.8,-,N/A,,Mostly Cloudy,250,2012-12-31 15:09:00
8:27 AM,15.8,-9999,N/A,29.92,10.0,SSW,5.8,-,N/A,,Overcast,210,2012-12-31 15:27:00
8:57 AM,17.1,-9999,N/A,30.00,5.0,SW,6.9,-,0.00,Snow,Light Snow,220,2012-12-31 15:57:00
9:39 AM,21.2,-9999,N/A,29.95,10.0,West,6.9,-,0.00,,Partly Cloudy,260,2012-12-31 16:39:00
9:57 AM,21.9,-9999,N/A,30.01,10.0,WSW,6.9,-,0.00,,Scattered Clouds,250,2012-12-31 16:57:00
10:09 AM,24.8,-9999,N/A,29.96,10.0,WSW,8.1,-,N/A,,Mostly Cloudy,250,2012-12-31 17:09:00
10:57 AM,25.0,-9999,N/A,30.01,10.0,WSW,9.2,-,0.00,,Overcast,240,2012-12-31 17:57:00
11:30 AM,24.8,-9999,N/A,29.97,-9999.0,North,-9999.0,-,0.00,,Unknown,0,2012-12-31 18:30:00
11:57 AM,26.1,17.1,69,30.00,9.0,NW,8.1,-,N/A,,Unknown,310,2012-12-31 18:57:00
12:22 PM,24.8,15.8,69,29.96,10.0,Variable,4.6,-,N/A,,Overcast,0,2012-12-31 19:22:00
12:57 PM,25.0,16.0,69,30.00,10.0,West,8.1,16.1,N/A,,Overcast,270,2012-12-31 19:57:00
1:57 PM,25.0,16.0,69,29.99,10.0,WSW,8.1,-,N/A,,Overcast,240,2012-12-31 20:57:00
2:47 PM,26.6,15.8,64,29.97,10.0,West,10.4,-,N/A,,Scattered Clouds,260,2012-12-31 21:47:00
2:57 PM,25.0,16.0,69,30.01,10.0,WSW,11.5,-,N/A,,Mostly Cloudy,250,2012-12-31 21:57:00
3:50 PM,24.8,14.0,64,30.00,10.0,West,5.8,-,N/A,,Scattered Clouds,260,2012-12-31 22:50:00
3:57 PM,24.1,15.1,69,30.08,10.0,Variable,6.9,-,N/A,,Scattered Clouds,0,2012-12-31 22:57:00
4:57 PM,21.9,14.0,72,30.11,10.0,WSW,5.8,-,N/A,,Clear,250,2012-12-31 23:57:00
5:57 PM,18.0,12.9,81,30.12,10.0,WSW,4.6,-,N/A,,Clear,250,2013-01-01 00:57:00
6:57 PM,18.0,14.0,84,30.12,10.0,WSW,4.6,-,N/A,,Mostly Cloudy,240,2013-01-01 01:57:00
7:57 PM,17.1,12.9,84,30.14,10.0,West,3.5,-,N/A,,Clear,270,2013-01-01 02:57:00
8:57 PM,12.9,10.0,88,30.19,10.0,Calm,Calm,-,N/A,,Overcast,0,2013-01-01 03:57:00
9:16 PM,14.0,10.4,86,30.06,10.0,Calm,Calm,-,N/A,,Mostly Cloudy,0,2013-01-01 04:16:00
9:57 PM,16.0,12.9,88,30.16,10.0,WSW,6.9,-,N/A,,Overcast,250,2013-01-01 04:57:00
10:54 PM,12.2,8.6,85,30.08,10.0,NW,4.6,-,N/A,,Scattered Clouds,310,2013-01-01 05:54:00
10:57 PM,14.0,10.0,84,30.18,10.0,WNW,5.8,-,N/A,,Scattered Clouds,300,2013-01-01 05:57:00
11:53 PM,17.6,14.0,86,30.08,10.0,WNW,4.6,-,N/A,,Mostly Cloudy,290,2013-01-01 06:53:00
11:57 PM,16.0,14.0,92,30.16,10.0,WNW,4.6,-,N/A,,Mostly Cloudy,290,2013-01-01 06:57:00